This is the latest recevied weather packets stored in our database for station/object VA2DG-13. If no packets are shown the sender has not sent any weather packets the latest 10 day(s).
| Time | Temp. | Humidity | Pressure | Rain* | Wind** | Luminosity | Snow |
|---|---|---|---|---|---|---|---|
| 1777733111 | 5.56° C | 83% | 1010.9 hPa | 0 mm | - | - | - |
| 1777732811 | 5° C | 83% | 1010.8 hPa | 0 mm | - | - | - |
| 1777732511 | 5° C | 83% | 1010.9 hPa | 0 mm | - | - | - |
| 1777729212 | 5° C | 82% | 1011.1 hPa | 0.25 mm | - | - | - |
| 1777728911 | 4.44° C | 82% | 1011.2 hPa | 0.25 mm | - | - | - |
| 1777728311 | 4.44° C | 82% | 1011.2 hPa | 0.25 mm | - | - | - |
| 1777727411 | 4.44° C | 82% | 1011.4 hPa | 0.25 mm | - | - | - |
| 1777726510 | 4.44° C | 82% | 1011.1 hPa | 0 mm | - | - | - |
| 1777725910 | 4.44° C | 82% | 1011.2 hPa | 0 mm | - | - | - |
| 1777725011 | 5° C | 82% | 1011.3 hPa | 0 mm | - | - | - |
| 1777723210 | 5° C | 82% | 1011 hPa | 0 mm | - | - | - |
| 1777722311 | 5.56° C | 82% | 1011 hPa | 0 mm | - | - | - |
| 1777721111 | 5.56° C | 82% | 1011.1 hPa | 0 mm | - | - | - |
| 1777718411 | 5.56° C | 83% | 1010.7 hPa | 0 mm | - | - | - |
| 1777717811 | 5.56° C | 82% | 1010.6 hPa | 0 mm | - | - | - |
| 1777717211 | 5° C | 82% | 1010.5 hPa | 0 mm | - | - | - |
| 1777716611 | 5° C | 81% | 1010.5 hPa | 0 mm | - | - | - |
| 1777713610 | 5.56° C | 79% | 1010.2 hPa | 0 mm | - | - | - |
| 1777710310 | 6.11° C | 73% | 1010.2 hPa | 0 mm | - | - | - |
| 1777709710 | 6.11° C | 72% | 1010.2 hPa | 0 mm | - | - | - |
| 1777708210 | 6.67° C | 69% | 1010.1 hPa | 0 mm | - | - | - |
| 1777707911 | 6.67° C | 69% | 1009.9 hPa | 0 mm | - | - | - |
| 1777707610 | 6.67° C | 70% | 1009.9 hPa | 0 mm | - | - | - |
| 1777707010 | 6.67° C | 71% | 1010 hPa | 0 mm | - | - | - |
| 1777704310 | 6.11° C | 69% | 1009.7 hPa | 0 mm | - | - | - |
* Rain latest hour (hover to see other rain measurements)
** Current wind speed in m/s (hover to see current wind gust speed)